Wind_Speed
21 21 20 18 17 16 14 13 14 15 17 19 20 19 19 18 16 15 15 15 15 16 17 16 16 16 17 19 20 20 19 18 18 19 19 20 20 20 19 19 20 20 19
20 19 18 18 17 16 14 14 14 15 16 18 20 20 19 19 17 16 15 16 16 17 18 18 18 20 21 22 23 23 22 22 22 22 22 23 22 22 21 21 21 22 21
17 17 16 16 16 14 13 14 14 15 17 18 18 19 20 20 18 17 17 17 18 19 20 21 21 22 23 24 25 26 26 25 26 26 26 25 24 23 23 23 23 24 23
12 12 12 12 13 13 14 15 16 17 18 19 20 20 21 20 19 18 18 20 21 22 23 24 25 25 26 27 28 28 28 28 29 30 29 27 27 26 25 26 27 28 26
9 10 10 10 12 13 15 17 18 18 19 19 20 21 22 21 21 20 20 22 24 25 26 26 27 27 28 30 31 32 32 32 32 33 33 32 32 31 30 30 31 33 29
11 11 11 10 10 11 13 15 17 17 17 17 19 20 21 22 23 25 25 26 27 28 29 30 31 32 33 34 35 37 38 39 38 38 38 38 38 37 36 36 34 36 33
14 14 13 13 10 7 8 11 12 13 14 15 17 18 19 20 22 25 28 29 29 30 31 31 33 35 37 39 39 39 38 37 37 39 40 41 42 41 42 42 40 38 37
14 12 12 13 11 9 9 10 12 14 15 16 16 18 20 22 24 24 26 29 31 32 32 31 30 31 32 33 34 34 33 30 28 28 28 30 32 35 36 38 40 42 42
17 15 14 14 10 9 10 12 13 15 17 18 18 18 19 20 21 23 24 26 26 27 28 28 28 29 30 29 29 29 29 28 27 27 28 28 28 27 28 29 29 30 34
20 19 15 12 11 12 14 15 16 18 20 21 21 20 20 21 21 22 23 25 27 27 26 26 27 28 28 29 29 29 29 30 30 29 29 29 28 28 27 27 27 27 28
21 20 17 13 12 13 15 17 19 21 23 24 24 24 25 25 25 24 24 24 25 26 27 28 28 28 29 30 30 30 30 29 29 29 30 31 31 30 30 29 28 27 27
18 18 18 18 17 16 16 18 20 23 25 26 26 26 27 27 27 28 28 28 27 28 29 31 31 31 32 32 31 31 30 29 29 30 31 32 33 33 33 32 31 30 30
15 18 19 21 21 21 20 21 22 25 27 28 28 28 28 28 28 28 28 28 29 29 29 31 33 33 34 34 35 34 33 32 32 33 35 37 38 39 39 38 37 36 35
24 23 21 20 20 22 23 24 24 25 25 26 27 29 29 28 28 29 28 27 28 29 29 30 32 33 35 36 37 37 36 36 35 36 37 39 41 42 43 44 44 43 43
29 25 20 23 21 22 23 25 24 23 23 25 27 29 29 30 30 31 30 29 29 31 33 34 35 37 38 40 42 41 41 41 41 41 41 42 43 44 46 47 48 48 48
28 29 29 30 27 26 23 22 24 24 25 26 27 28 29 32 33 32 32 32 33 35 38 40 42 43 45 46 46 46 45 45 45 46 46 47 47 48 49 50 52 51 51
33 35 36 32 31 28 26 26 26 26 25 28 31 33 34 36 36 36 36 37 38 39 42 45 48 49 50 50 50 50 50 51 51 51 50 50 50 50 51 52 54 55 54
34 36 37 36 33 31 31 30 28 26 27 31 34 36 38 39 39 38 38 39 38 40 43 46 49 51 51 52 52 53 55 56 56 55 56 57 57 57 57 57 58 58 57
35 37 37 36 35 35 35 33 31 30 31 33 35 37 39 41 42 43 43 42 42 44 46 47 50 51 51 52 54 56 57 57 58 59 61 63 65 66 65 64 64 63 61
35 37 38 37 37 37 37 35 34 33 33 34 35 38 39 41 42 44 45 46 46 48 49 51 52 53 54 55 58 60 60 62 64 66 68 71 72 73 73 72 71 70 68
35 38 39 38 37 37 36 35 35 35 35 36 38 39 40 41 43 45 47 48 48 50 53 56 57 59 62 65 67 68 68 69 70 72 75 77 79 81 82 81 80 79 76
37 40 39 38 37 36 35 35 36 37 38 39 40 42 43 44 46 49 51 53 54 56 58 60 62 65 68 72 75 76 75 74 74 73 73 74 75 77 78 80 81 80 78
36 39 38 37 37 37 37 38 39 40 40 42 44 45 47 49 51 54 55 57 59 61 63 65 68 71 73 76 77 78 77 75 69 65 64 64 64 64 66 68 70 70 69
35 36 36 36 38 39 40 41 42 42 44 46 48 50 53 55 57 58 60 62 65 67 67 67 67 67 68 69 70 69 66 62 57 53 53 54 54 55 55 56 56 55 55
35 37 38 39 40 42 44 45 46 46 48 50 52 54 56 58 60 61 64 66 66 63 60 58 57 57 57 56 54 53 52 51 51 51 50 50 49 48 47 46 44 43 42
38 39 42 43 44 44 46 48 48 50 51 53 55 57 58 60 61 64 65 62 57 53 50 49 50 50 50 50 49 49 49 49 50 50 50 49 45 41 40 39 38 38 38
Wind_Direction
294 290 281 276 276 277 278 275 269 270 276 277 276 273 272 274 276 278 278 276 271 267 263 259 257 257 257 258 260 262 262 262 263 267 272 278 282 284 283 278 271 265 263
293 286 278 272 269 272 274 272 268 267 270 274 277 278 277 276 277 278 277 277 275 271 266 261 261 263 263 264 266 267 268 270 271 269 271 276 280 281 280 277 271 265 262
294 290 285 274 267 264 261 262 263 268 271 271 272 275 278 277 275 274 274 274 272 271 269 264 261 261 262 263 266 269 270 270 271 271 273 275 278 278 276 274 270 264 259
304 302 292 278 269 263 260 262 264 265 270 270 268 268 273 276 274 273 273 272 270 270 270 268 265 264 264 265 267 269 271 273 273 273 273 273 275 275 270 267 267 261 252
320 326 320 304 288 280 275 274 273 271 270 270 268 266 268 270 273 273 272 271 269 269 268 268 266 265 266 268 269 269 270 271 272 272 272 272 272 273 271 267 266 258 245
342 351 351 338 310 290 278 274 275 276 275 275 277 276 273 272 274 274 272 271 271 269 268 268 268 268 269 270 271 273 274 273 271 270 269 269 268 268 268 267 265 256 241
351 359 359 349 332 303 274 273 282 289 288 284 281 279 276 278 281 278 275 273 273 273 274 273 271 271 272 275 276 277 279 279 276 273 272 270 267 267 266 265 262 258 247
339 339 332 330 312 284 279 288 296 301 303 303 301 295 289 286 288 286 282 278 275 274 275 277 277 278 279 279 278 279 283 285 282 281 282 282 279 273 272 271 267 263 255
327 318 309 305 300 284 290 303 308 310 310 311 309 305 302 299 296 293 290 286 283 282 280 277 277 278 278 278 278 279 282 281 279 277 278 282 284 284 280 279 278 274 268
321 314 307 300 297 296 300 304 308 311 310 310 311 310 307 304 302 299 296 291 288 286 284 281 278 277 277 277 278 280 282 283 283 283 282 281 280 277 274 273 274 273 276
316 308 298 296 299 298 299 303 306 306 305 306 308 308 308 308 307 306 304 298 292 288 286 283 281 280 278 278 278 278 280 282 283 285 286 286 285 282 279 275 273 273 274
307 300 298 305 302 295 293 293 294 297 299 302 304 305 305 307 309 310 309 305 298 291 286 284 282 280 278 277 276 275 275 276 278 280 282 283 284 284 283 281 278 274 271
314 305 307 309 301 292 286 286 290 295 299 303 304 302 301 303 307 307 307 308 304 298 291 288 287 281 276 274 272 273 274 277 280 282 284 284 283 281 280 278 276 274 272
327 318 318 319 313 306 298 293 292 297 300 304 305 304 305 306 308 309 307 306 304 299 295 294 292 287 280 276 275 274 274 274 275 276 278 278 278 277 276 275 274 273 272
339 330 328 329 328 331 317 296 290 295 301 304 305 308 311 310 309 313 313 306 298 293 291 292 292 289 282 277 275 273 273 273 273 272 271 271 270 270 271 271 271 270 270
337 334 332 338 337 336 326 300 289 294 306 311 313 311 310 310 308 305 302 298 291 286 285 285 287 288 281 274 272 273 274 276 278 278 276 273 270 268 267 267 268 268 267
330 329 332 333 332 332 328 314 303 305 313 317 315 313 312 310 307 305 305 302 296 289 287 287 288 290 286 278 273 274 277 280 283 283 282 279 276 273 269 267 266 266 266
326 327 327 326 326 327 324 318 312 310 313 315 315 315 313 311 309 308 308 306 299 294 294 293 292 291 287 280 275 276 280 282 285 286 285 284 282 279 276 273 271 269 267
324 324 323 323 324 324 321 319 314 312 313 315 315 313 311 309 309 309 307 305 301 297 295 293 292 289 285 282 281 281 283 284 285 285 285 284 282 280 278 276 273 272 269
321 323 324 324 322 320 318 316 314 313 314 314 311 309 307 306 307 306 303 303 301 299 297 294 292 287 285 284 284 285 286 285 284 284 283 282 281 279 277 275 273 271 269
319 321 323 323 322 320 317 315 313 312 312 311 309 307 306 304 304 302 301 300 298 297 295 294 291 288 287 286 286 286 285 285 285 285 285 285 282 279 276 273 271 270 269
316 320 323 323 321 320 318 315 314 312 312 310 309 307 306 304 303 302 301 300 299 297 295 293 291 288 287 287 287 286 286 285 286 287 288 287 285 282 278 274 271 269 268
317 321 322 320 319 318 318 316 315 313 311 309 307 307 306 305 305 304 303 301 300 298 295 294 293 292 291 289 288 288 287 287 286 287 288 289 288 286 281 276 272 269 268
313 319 320 319 319 319 318 317 315 312 309 307 307 307 307 306 305 305 304 302 301 300 299 299 298 297 295 293 291 290 289 288 287 287 287 290 291 289 285 280 274 268 265
307 313 316 317 317 316 316 315 313 310 308 307 307 306 306 305 305 305 304 304 303 302 303 303 303 303 302 300 298 294 292 291 290 290 289 290 291 289 286 281 275 267 262
303 306 309 311 312 313 314 313 312 310 308 307 307 306 306 306 305 305 304 303 303 303 304 305 306 306 306 304 302 299 296 294 292 291 291 290 290 289 285 279 272 267 263
Height
5903 5902 5902 5902 5901 5901 5901 5901 5902 5901 5901 5900 5900 5899 5899 5899 5899 5899 5900 5900 5900 5901 5901 5900 5900 5899 5898 5898 5897 5897 5897 5897 5896 5894 5893 5892 5892 5892 5892 5892 5893 5893 5893
5900 5899 5899 5899 5899 5899 5898 5898 5899 5899 5899 5899 5899 5898 5898 5898 5897 5897 5897 5897 5897 5898 5898 5898 5897 5896 5896 5895 5894 5894 5894 5894 5893 5892 5890 5890 5889 5888 5888 5888 5888 5888 5888
5897 5896 5896 5896 5896 5895 5895 5896 5896 5896 5896 5897 5897 5897 5896 5896 5895 5895 5894 5894 5894 5894 5894 5894 5893 5892 5891 5890 5890 5889 5889 5889 5888 5887 5886 5886 5886 5885 5884 5883 5883 5883 5883
5895 5894 5894 5893 5892 5892 5892 5893 5893 5894 5894 5893 5893 5893 5893 5893 5892 5892 5891 5891 5891 5890 5890 5890 5889 5888 5887 5886 5885 5884 5884 5884 5884 5882 5881 5881 5880 5881 5881 5880 5879 5878 5878
5893 5893 5892 5891 5890 5891 5891 5891 5891 5891 5890 5890 5889 5889 5889 5889 5889 5888 5887 5887 5887 5887 5886 5886 5886 5885 5883 5882 5880 5879 5879 5878 5878 5876 5876 5875 5874 5874 5875 5875 5874 5873 5873
5891 5890 5889 5889 5888 5889 5889 5889 5889 5888 5888 5887 5886 5886 5885 5885 5886 5885 5884 5883 5882 5881 5881 5880 5880 5880 5879 5877 5876 5875 5874 5874 5872 5870 5869 5868 5867 5867 5868 5869 5869 5867 5866
5890 5889 5888 5887 5887 5886 5887 5887 5886 5886 5885 5884 5883 5883 5882 5882 5881 5880 5879 5878 5877 5876 5875 5874 5874 5873 5873 5872 5870 5868 5867 5867 5865 5863 5862 5861 5860 5860 5860 5860 5861 5861 5860
5889 5888 5887 5886 5885 5884 5884 5883 5882 5882 5882 5881 5880 5880 5880 5879 5877 5876 5874 5872 5870 5870 5870 5869 5867 5866 5865 5865 5863 5861 5860 5859 5858 5856 5854 5853 5852 5852 5852 5851 5852 5853 5853
5887 5886 5885 5883 5882 5881 5881 5880 5879 5879 5878 5878 5877 5877 5875 5874 5872 5871 5869 5866 5865 5864 5863 5862 5861 5859 5858 5857 5855 5853 5852 5852 5851 5849 5847 5846 5845 5845 5845 5844 5844 5844 5844
5885 5884 5882 5881 5880 5879 5878 5878 5877 5876 5875 5874 5872 5871 5870 5868 5867 5865 5864 5862 5860 5859 5857 5856 5854 5852 5851 5850 5848 5846 5845 5844 5844 5843 5841 5839 5839 5838 5837 5837 5837 5836 5835
5883 5881 5880 5880 5879 5878 5877 5876 5874 5873 5871 5870 5868 5867 5865 5863 5862 5860 5859 5857 5856 5855 5853 5850 5848 5847 5845 5843 5841 5839 5837 5836 5835 5834 5833 5832 5832 5831 5830 5829 5829 5827 5827
5879 5878 5879 5879 5879 5878 5876 5874 5871 5869 5867 5866 5864 5862 5860 5858 5856 5854 5852 5852 5851 5849 5847 5844 5842 5840 5838 5837 5834 5832 5831 5829 5828 5826 5825 5824 5823 5822 5822 5821 5820 5819 5819
5877 5876 5876 5876 5876 5874 5872 5870 5867 5865 5863 5861 5859 5857 5855 5853 5850 5848 5846 5845 5844 5842 5840 5838 5836 5833 5831 5829 5827 5825 5823 5822 5820 5818 5816 5815 5814 5813 5813 5812 5811 5811 5811
5874 5872 5873 5872 5871 5870 5867 5864 5862 5860 5859 5857 5855 5853 5850 5847 5845 5842 5839 5837 5835 5833 5832 5830 5827 5825 5823 5821 5819 5817 5815 5814 5812 5810 5809 5807 5805 5804 5803 5802 5801 5800 5801
5870 5868 5868 5868 5866 5864 5862 5861 5859 5856 5854 5851 5849 5846 5844 5841 5839 5835 5832 5830 5828 5825 5824 5822 5819 5817 5814 5812 5809 5807 5805 5803 5802 5800 5799 5797 5796 5794 5792 5790 5789 5789 5788
5868 5866 5865 5863 5860 5858 5856 5855 5854 5851 5846 5843 5841 5840 5837 5834 5832 5829 5827 5824 5822 5819 5817 5814 5811 5808 5805 5802 5800 5797 5795 5793 5791 5789 5787 5785 5783 5782 5780 5778 5777 5775 5775
5863 5860 5858 5856 5854 5851 5850 5848 5846 5842 5839 5836 5834 5832 5829 5827 5824 5820 5817 5814 5811 5808 5806 5802 5799 5796 5793 5790 5788 5785 5783 5780 5777 5775 5773 5770 5769 5767 5766 5765 5763 5762 5761
5859 5856 5854 5852 5850 5847 5844 5842 5840 5836 5833 5830 5827 5824 5821 5818 5815 5812 5809 5805 5801 5798 5794 5790 5786 5782 5779 5776 5774 5772 5769 5766 5763 5759 5757 5754 5752 5750 5749 5748 5747 5746 5745
5856 5853 5851 5848 5845 5842 5839 5836 5833 5830 5827 5824 5820 5817 5813 5810 5806 5802 5799 5795 5792 5788 5783 5779 5775 5770 5767 5763 5761 5758 5755 5751 5748 5745 5742 5739 5736 5733 5731 5729 5727 5726 5726
5852 5849 5846 5842 5838 5835 5832 5830 5827 5824 5820 5817 5813 5810 5806 5801 5797 5793 5789 5785 5781 5776 5771 5767 5763 5759 5755 5750 5747 5744 5741 5737 5733 5729 5725 5722 5718 5714 5711 5708 5706 5706 5706
5848 5844 5840 5835 5832 5829 5826 5823 5820 5816 5813 5809 5805 5801 5797 5793 5789 5784 5779 5775 5771 5766 5761 5756 5752 5746 5740 5735 5730 5727 5724 5720 5715 5710 5705 5700 5695 5690 5687 5684 5682 5682 5684
5844 5838 5833 5829 5825 5822 5820 5816 5813 5808 5803 5799 5795 5791 5787 5783 5779 5773 5768 5763 5758 5753 5747 5741 5736 5730 5724 5716 5709 5705 5702 5702 5697 5691 5683 5676 5670 5664 5660 5657 5655 5657 5659
5838 5833 5828 5824 5820 5817 5813 5809 5805 5800 5795 5791 5787 5782 5777 5772 5766 5761 5755 5749 5743 5736 5730 5723 5717 5710 5704 5696 5687 5681 5677 5676 5674 5671 5661 5655 5649 5643 5637 5633 5631 5633 5635
5834 5829 5824 5819 5815 5810 5806 5802 5797 5793 5788 5783 5777 5772 5765 5759 5753 5747 5741 5734 5727 5719 5712 5705 5697 5690 5683 5675 5668 5661 5656 5653 5651 5649 5644 5638 5632 5626 5620 5615 5613 5613 5616
5828 5823 5818 5813 5807 5803 5799 5795 5790 5785 5779 5773 5766 5760 5754 5747 5740 5733 5726 5718 5711 5703 5696 5688 5681 5674 5666 5658 5651 5645 5641 5638 5635 5632 5628 5624 5619 5613 5607 5603 5600 5600 5601
5821 5816 5812 5806 5801 5797 5793 5787 5781 5775 5768 5762 5756 5749 5743 5735 5727 5719 5711 5704 5697 5690 5683 5676 5669 5662 5655 5647 5641 5634 5629 5626 5622 5618 5614 5610 5607 5603 5598 5593 5591 5591 5592